GFSWCAN_850_temp_273.txt.gz
Temp
10 10 10 10 11 11 11 11 11 11 11 11 11 11 11 11 11 10 10 9 9 13 15 16 17 18 18 20 22 22 22 23 25 24 25 26 26 23 15 19 27 26 21 20 26 27 27 33 31 30 31 32 34 33
10 10 10 10 11 11 11 11 11 11 11 11 11 11 11 11 10 10 8 8 7 8 13 13 13 14 16 18 19 21 22 22 24 25 25 26 22 14 15 17 28 26 20 14 15 19 16 28 29 27 29 29 29 29
9 9 10 10 10 11 11 11 11 11 11 11 11 11 11 10 9 9 7 7 6 9 13 16 18 17 15 15 16 18 20 21 22 22 23 23 22 21 18 20 25 18 20 17 13 13 16 26 26 27 27 27 27 26
8 8 9 9 10 10 10 11 11 11 11 11 11 11 10 10 9 9 7 6 5 9 13 20 18 17 17 17 17 16 17 19 20 21 22 23 23 23 24 26 19 20 15 17 16 15 21 26 25 25 25 25 25 25
7 8 8 8 9 10 10 10 10 10 10 11 11 11 10 10 9 9 8 7 5 8 13 15 16 18 19 18 17 16 16 17 19 21 22 23 24 20 20 25 25 24 23 21 21 23 24 25 24 24 24 24 24 23
8 7 8 8 8 9 10 10 10 10 10 10 10 10 10 9 9 8 9 7 6 4 6 16 18 18 18 18 17 16 17 17 18 19 21 22 23 21 23 22 25 26 25 25 25 23 24 24 24 24 23 23 22 23
8 8 7 8 8 9 9 10 10 10 10 10 10 10 10 10 9 8 9 7 7 6 6 13 19 19 18 18 18 17 17 18 18 19 20 21 23 22 23 23 25 23 23 22 22 22 23 23 24 23 23 22 21 22
8 8 8 8 8 8 9 10 10 10 9 10 10 10 10 9 8 8 7 7 6 5 8 13 18 20 19 19 19 18 18 18 19 20 21 23 22 23 22 23 24 24 23 22 22 22 23 22 22 22 22 22 22 22
9 8 8 8 8 8 9 9 10 10 9 10 9 8 8 7 7 7 7 6 5 6 7 13 18 17 17 20 17 18 19 20 20 21 22 22 23 22 23 22 23 23 22 22 22 22 22 22 22 21 21 22 22 22
9 9 8 8 8 8 9 9 9 9 9 9 9 8 9 8 7 7 6 5 5 6 6 11 14 17 19 19 16 17 17 20 19 22 22 22 23 23 22 21 20 19 20 20 20 21 21 20 21 22 22 22 22 22
9 9 8 8 8 8 9 9 9 9 8 9 11 12 8 8 8 7 10 10 9 10 8 10 12 14 16 16 15 16 17 17 17 19 21 21 22 20 19 19 18 17 17 18 19 19 20 21 22 22 22 22 21 20
9 9 9 8 8 9 9 9 9 8 7 8 8 9 8 10 13 14 14 12 12 10 9 9 11 13 14 15 15 19 18 19 18 19 16 17 16 18 18 18 17 17 17 18 18 18 19 20 21 22 22 21 20 19
9 9 9 9 8 9 9 9 9 9 9 8 8 10 13 14 12 14 15 14 11 12 13 12 12 12 13 14 15 16 17 19 20 18 19 16 16 17 16 17 17 17 17 18 18 19 19 19 19 21 21 20 19 16
9 9 9 9 9 9 9 9 9 9 9 11 14 10 16 15 16 16 14 14 14 13 13 13 13 12 13 12 13 15 17 19 17 17 18 16 16 16 16 16 16 17 17 17 18 18 18 18 19 20 20 19 18 17
9 9 9 9 9 9 9 9 9 9 9 13 14 13 16 17 14 15 15 14 13 13 14 13 14 14 15 15 18 19 18 18 19 17 15 14 15 15 14 14 15 15 16 16 16 17 19 19 20 19 19 18 17 16
8 9 9 9 9 9 9 9 9 9 9 12 14 16 16 17 17 16 16 15 15 14 13 15 16 15 14 16 17 17 18 18 16 16 14 14 13 13 13 12 12 13 14 15 15 15 16 18 19 19 18 17 16 15
8 8 8 8 9 9 9 9 8 7 11 14 16 17 17 17 16 16 16 13 13 14 13 13 13 15 16 15 16 15 15 15 15 16 15 14 13 13 12 12 12 13 13 14 14 14 15 16 18 17 16 16 16 15
8 7 8 9 9 9 7 8 9 12 13 15 17 17 17 17 16 15 13 11 12 12 12 11 10 13 14 15 15 13 15 15 15 15 15 14 13 13 12 12 12 13 14 14 14 14 14 15 15 15 15 15 15 14
8 8 8 8 9 8 10 11 10 13 16 18 17 17 17 16 15 14 12 11 11 10 9 9 10 11 11 12 11 11 12 12 12 12 13 14 13 13 12 12 12 13 13 13 13 13 13 14 14 14 14 14 14 14
8 9 9 9 9 7 11 12 10 11 16 17 17 17 17 16 15 13 13 13 11 10 9 9 9 9 8 9 9 9 9 10 10 11 12 13 13 13 13 12 13 13 12 12 12 12 12 12 11 13 13 13 13 13
8 8 9 8 8 7 11 14 14 15 16 17 17 17 17 16 15 15 15 13 10 8 9 8 8 7 7 8 9 9 9 9 9 9 9 10 11 12 12 12 11 11 11 11 11 11 11 12 12 12 13 13 13 13
7 8 7 8 7 8 8 11 13 15 15 17 17 17 15 15 15 16 14 14 12 9 8 8 8 7 7 8 8 9 9 9 9 9 9 9 10 10 10 10 11 10 11 11 11 11 10 11 11 12 12 14 16 15
8 8 8 9 8 8 11 13 14 15 16 17 18 17 15 15 16 15 15 15 12 10 10 10 8 8 8 8 8 9 9 8 9 9 9 9 9 9 9 10 10 10 10 10 10 10 10 10 11 12 12 15 15 14
7 8 11 11 8 11 15 15 15 16 17 17 17 17 16 15 16 16 16 15 14 12 11 10 10 9 9 10 9 9 9 9 9 9 9 9 9 8 8 9 9 9 10 9 10 10 10 11 12 14 14 14 14 14
7 8 9 6 13 14 16 17 17 18 17 17 18 17 15 16 16 15 16 16 14 13 12 11 11 12 12 11 11 10 10 10 10 10 9 10 9 9 9 9 9 9 10 10 11 11 12 13 12 12 14 15 15 16
8 11 9 15 16 16 18 17 17 17 17 17 17 17 17 16 16 15 16 15 14 14 13 13 14 14 14 12 12 12 13 12 12 12 12 12 12 12 12 12 12 12 13 13 13 14 14 14 15 15 15 15 16 16
8 14 14 14 16 17 18 18 18 18 17 16 18 18 17 16 16 14 16 16 15 15 14 15 15 15 15 15 14 14 14 14 13 14 14 13 13 13 13 12 13 13 14 14 14 14 15 15 15 15 15 15 15 16
12 14 16 16 16 16 17 16 17 17 18 18 18 17 17 17 15 15 15 15 15 15 15 15 15 15 15 15 15 14 14 15 14 15 15 14 14 14 13 13 13 13 13 13 13 13 14 14 14 14 14 14 14 14
13 14 15 16 17 17 17 17 17 18 18 17 17 16 16 15 15 15 15 14 15 16 16 16 16 16 16 16 16 14 13 14 15 14 15 15 15 15 15 14 14 14 13 12 11 12 12 12 13 13 13 13 13 12
14 15 16 16 17 17 17 18 17 17 17 17 16 16 14 14 14 14 14 14 15 16 16 15 16 16 16 16 17 16 15 14 15 16 16 15 15 15 14 14 14 14 14 14 13 12 12 13 12 12 12 12 12 12
16 16 16 17 18 18 17 17 17 17 17 16 16 15 13 14 14 14 15 15 15 15 16 16 16 16 16 16 17 16 16 16 15 15 16 15 15 14 14 14 14 13 13 13 13 13 12 12 11 11 11 11 10 11
16 16 17 18 17 17 17 17 17 16 16 16 17 16 15 15 14 13 14 14 14 15 15 15 16 15 16 16 16 15 15 15 15 15 15 15 14 14 14 14 14 13 13 12 12 12 12 11 11 11 10 10 10 9
16 17 17 17 16 17 17 17 15 16 16 17 17 17 16 15 15 15 14 13 14 15 15 15 15 15 15 15 15 15 15 14 14 14 14 13 13 13 14 14 14 13 13 13 12 12 11 11 11 10 10 9 9 9

GFSWCAN_850_temp_276.txt.gz
Temp
10 10 10 10 11 11 11 11 11 11 11 11 11 12 12 12 12 12 12 11 11 13 15 16 17 19 20 21 21 22 23 24 25 24 24 25 25 16 15 16 17 19 21 18 19 23 23 22 24 24 20 27 34 34
9 9 10 10 10 10 11 11 11 11 11 11 11 11 11 11 11 11 10 11 10 10 13 15 15 15 16 17 20 21 22 23 24 24 25 25 23 18 18 16 21 20 17 16 17 23 20 19 18 18 20 28 31 32
8 8 8 9 9 10 10 10 10 11 11 11 11 11 11 11 11 10 10 8 8 11 13 17 19 20 19 17 17 19 20 21 22 23 24 22 20 18 17 18 20 19 15 17 18 20 16 15 17 21 21 27 26 29
7 7 8 8 8 9 9 10 10 10 10 10 11 11 11 11 10 10 9 7 8 10 14 18 21 20 19 19 18 18 19 19 20 21 22 23 23 18 20 21 17 14 13 13 16 18 15 16 17 16 14 21 27 27
8 8 8 8 8 8 9 9 10 10 10 10 10 10 10 10 10 9 10 7 6 8 13 14 15 19 20 20 19 19 20 19 19 21 22 23 23 24 21 22 23 14 16 16 17 15 13 15 14 15 14 21 25 24
8 8 8 8 8 8 8 9 9 10 10 10 10 10 10 10 9 8 10 7 7 5 8 15 17 18 19 20 20 20 19 19 19 20 21 22 22 23 23 22 22 20 19 17 12 17 14 15 17 20 24 24 24 24
8 8 8 8 8 8 8 9 9 9 10 10 10 10 10 10 9 8 9 7 7 6 8 14 18 21 20 20 20 19 19 19 19 20 21 21 22 23 24 23 25 24 20 17 18 15 15 17 21 24 24 23 24 24
8 8 9 8 8 8 8 9 9 10 9 10 10 10 9 9 8 7 7 7 7 6 8 12 17 19 17 18 20 20 20 20 20 20 21 22 22 23 22 24 24 24 23 21 16 20 23 22 22 23 24 23 23 23
9 9 9 9 8 8 8 9 10 10 9 10 10 9 9 8 8 7 8 7 6 6 7 13 16 17 15 12 12 15 19 21 21 21 21 22 22 22 23 23 23 23 23 23 23 23 23 23 21 22 23 23 23 24
9 9 9 9 8 8 8 9 10 10 10 10 10 7 11 9 9 8 7 6 6 6 7 11 14 15 15 11 11 13 14 20 21 22 22 22 22 23 23 23 22 21 21 21 22 22 22 22 22 23 23 23 23 23
9 9 9 9 9 8 8 9 10 10 10 10 12 13 9 9 8 7 10 11 10 11 10 12 12 13 15 14 15 13 11 14 17 21 20 22 22 23 22 21 20 19 19 20 20 20 21 21 22 22 22 23 22 22
9 9 9 9 9 9 9 9 9 9 8 10 9 10 10 11 13 14 15 15 15 15 14 12 12 13 15 15 15 17 15 17 17 19 17 18 16 15 16 15 18 18 19 19 19 20 20 20 21 21 21 19 17 17
9 9 9 9 9 9 9 9 9 9 9 8 8 10 12 13 12 15 15 15 15 14 14 13 13 12 13 14 15 16 18 14 19 16 16 17 15 15 15 13 15 18 19 19 19 20 20 20 20 20 20 21 20 16
9 9 9 9 9 9 9 9 9 9 9 11 13 9 15 15 17 17 15 16 14 14 14 13 12 13 13 13 16 16 18 19 17 19 18 16 15 15 14 16 17 17 17 18 18 18 19 20 20 20 20 21 19 17
9 10 9 9 9 9 9 9 9 9 8 13 15 11 16 17 16 17 17 16 15 15 15 14 14 13 14 14 15 11 15 15 19 17 15 14 14 15 15 15 15 15 15 16 17 18 17 18 18 20 20 20 19 18
9 9 9 9 9 8 9 9 9 7 10 13 15 17 18 17 17 17 17 15 16 16 15 15 13 13 14 15 16 17 17 17 15 14 14 14 14 14 13 14 14 14 15 15 15 16 16 16 17 18 20 19 18 17
8 7 8 8 8 8 9 8 7 7 12 15 17 18 18 17 18 17 16 14 14 14 14 14 13 14 13 15 16 16 14 14 14 14 15 15 14 14 14 14 13 14 14 14 15 15 16 15 15 16 19 17 16 16
8 8 8 8 8 8 7 8 9 12 13 15 17 18 17 18 17 16 16 14 13 14 13 12 12 12 13 13 12 13 14 14 14 14 13 14 14 14 14 14 14 14 13 14 14 14 15 15 15 16 16 16 15 15
7 8 8 8 8 8 10 10 12 14 16 18 18 18 18 17 15 16 15 13 13 12 11 11 11 11 10 10 10 12 13 13 12 13 13 13 14 13 13 13 14 13 14 14 13 14 13 13 13 14 15 13 14 15
8 8 8 9 9 8 10 13 12 14 16 18 18 18 18 17 16 16 14 13 13 12 11 11 10 9 8 9 10 10 11 11 10 11 12 13 12 12 13 13 13 13 13 13 12 12 12 12 12 13 13 12 15 16
8 8 8 8 9 8 12 14 13 15 17 18 18 18 17 17 17 16 13 14 13 11 10 9 8 7 8 8 8 8 9 10 10 10 10 11 11 11 12 12 12 13 13 12 11 11 11 11 12 13 14 11 13 14
7 7 7 8 9 8 9 12 15 16 15 17 18 18 17 18 17 16 16 14 13 12 9 9 9 8 8 8 8 9 9 9 9 9 9 9 9 9 10 10 10 10 11 11 11 11 11 12 11 12 11 10 11 13
7 7 8 10 9 9 10 14 15 16 17 17 17 16 17 16 16 17 16 14 13 12 11 10 10 9 8 9 9 8 8 9 9 9 9 8 9 9 9 9 9 9 10 10 11 11 10 11 11 11 11 11 11 13
7 8 11 13 12 11 15 16 16 17 16 17 17 16 17 16 17 15 14 14 14 13 12 11 10 10 10 10 10 9 9 10 9 10 10 9 10 9 9 9 9 9 9 10 10 10 10 10 10 10 11 12 12 14
8 8 10 7 13 14 16 17 16 16 16 17 17 16 17 17 17 15 13 13 12 13 13 12 12 13 13 12 11 11 11 11 10 10 10 10 10 9 9 10 10 9 9 9 9 10 10 10 10 11 12 13 13 13
7 11 9 15 16 17 18 17 17 17 17 17 17 17 18 17 16 14 12 13 14 15 14 13 13 13 14 14 13 13 13 13 12 13 12 13 13 13 13 12 12 11 11 12 13 13 13 11 12 14 14 14 14 14
9 14 15 15 16 17 17 17 17 18 17 17 17 17 17 16 15 15 13 14 15 16 15 14 15 14 16 15 14 15 15 14 14 14 14 14 13 13 13 13 13 13 14 14 14 15 15 15 15 15 15 15 15 16
12 15 17 17 17 18 17 17 16 17 18 18 19 18 17 16 15 15 16 15 15 16 16 16 16 16 16 15 13 12 14 13 15 15 15 15 14 14 14 13 13 13 13 13 14 14 14 15 15 15 15 14 14 14
13 15 15 16 17 16 18 17 17 18 18 18 18 17 17 17 16 16 16 16 16 17 16 17 17 17 16 15 14 13 13 14 14 16 16 16 16 15 15 15 15 14 13 13 13 13 13 14 14 14 14 13 13 13
14 15 16 17 18 17 18 18 18 18 17 18 18 16 15 15 15 14 15 16 16 16 16 17 15 16 15 15 15 15 14 15 15 16 17 16 16 15 15 15 14 14 14 14 13 13 13 13 13 13 13 13 13 12
16 17 17 18 19 18 18 18 17 18 18 18 17 16 15 15 15 15 15 16 16 16 16 17 17 16 17 17 16 16 17 17 16 16 17 16 16 15 15 15 14 14 14 14 13 13 13 12 12 12 11 11 11 11
17 18 18 18 19 17 17 16 16 17 18 17 16 16 15 15 15 15 15 15 15 16 16 16 17 17 17 17 17 16 16 16 16 16 16 16 15 15 15 15 15 14 13 13 13 12 12 12 11 11 11 10 10 10
17 18 18 18 17 16 16 17 15 15 17 16 14 16 16 16 16 16 15 16 15 15 16 16 16 16 16 16 16 16 15 15 15 15 15 14 14 14 14 15 15 14 14 14 13 13 12 12 11 11 10 10 10 10

GFSWCAN_850_temp_279.txt.gz
Temp
9 9 9 10 10 10 10 11 11 11 11 12 12 12 12 12 12 12 13 12 11 11 12 15 16 15 16 17 17 20 19 21 21 20 21 20 21 17 18 18 18 19 18 18 18 18 19 17 19 19 18 18 18 20
8 8 8 8 9 9 9 10 10 11 11 11 11 12 12 12 12 12 12 12 11 10 13 15 16 17 16 17 16 17 18 18 22 18 18 19 20 17 17 17 18 16 17 16 15 16 18 16 17 16 17 17 18 20
7 7 7 8 8 8 9 9 10 10 11 11 11 11 11 11 11 11 11 10 9 10 12 14 17 19 19 19 19 16 17 18 20 21 19 18 20 15 15 15 19 16 15 14 15 16 16 17 18 17 15 18 20 22
7 7 7 8 8 8 8 9 9 9 10 11 11 11 11 10 10 10 10 10 7 8 10 14 17 19 19 19 18 18 18 18 18 19 19 17 18 19 18 17 15 15 15 15 14 16 17 18 19 18 16 15 19 22
8 8 8 8 8 8 8 8 9 9 10 10 11 11 10 10 10 10 10 9 6 7 10 10 14 18 18 19 19 20 19 19 19 18 17 17 20 19 19 19 18 15 14 14 15 16 15 15 18 17 15 14 15 14
8 8 8 8 8 8 8 8 8 9 10 10 10 10 10 10 10 9 9 8 7 6 7 10 14 18 18 19 20 20 19 19 19 20 18 20 20 20 17 18 21 16 15 16 13 18 16 15 15 14 15 18 16 17
9 9 9 8 8 8 8 8 8 9 9 10 10 10 10 10 10 8 8 8 7 6 7 11 14 17 17 17 18 19 20 20 19 19 19 19 19 20 17 18 20 19 19 20 18 15 15 19 17 16 15 16 19 18
9 9 9 9 9 9 8 8 9 9 10 10 10 10 9 9 9 8 8 8 7 7 8 10 14 17 16 13 14 13 13 17 19 19 19 18 20 20 17 20 22 20 18 17 16 16 21 19 17 18 16 18 19 18
9 9 9 9 9 9 8 8 9 10 10 10 10 10 9 9 8 9 8 8 7 7 8 10 13 13 16 13 12 12 12 12 17 19 18 19 18 17 18 20 22 22 17 19 19 19 18 18 18 18 17 22 23 23
9 9 9 9 9 9 9 9 9 10 11 11 10 10 9 10 9 9 8 7 7 7 7 9 13 14 14 14 12 11 10 11 13 18 21 18 18 21 17 18 18 20 21 21 20 20 20 17 17 21 21 20 19 21
9 9 9 9 9 9 9 9 9 10 10 10 10 10 9 10 9 8 10 9 10 10 10 11 13 12 14 13 12 12 11 11 12 15 17 17 18 15 13 16 18 19 19 19 20 20 20 21 21 21 20 20 20 20
9 9 9 9 9 9 9 9 9 9 9 10 9 10 9 10 11 12 13 14 13 14 14 13 14 13 13 15 13 13 12 11 12 15 16 16 15 15 15 16 17 17 17 18 19 20 20 20 20 20 20 20 21 20
9 9 9 9 9 9 9 9 9 9 9 9 9 10 12 13 9 14 15 15 14 15 15 14 12 12 13 13 13 13 14 14 16 14 16 14 15 14 15 15 16 16 16 15 18 18 18 19 19 19 20 20 20 19
9 9 9 9 9 9 9 9 9 9 9 9 12 7 13 13 15 17 16 16 16 15 15 15 13 13 13 13 14 14 15 16 16 16 15 14 14 15 15 15 15 15 16 16 16 17 17 17 17 18 18 19 19 19
8 9 9 9 9 9 8 9 9 9 9 11 14 10 15 17 17 17 17 16 16 15 14 15 14 13 13 13 13 13 13 15 15 13 13 14 14 14 14 14 14 14 14 14 15 15 15 15 16 16 18 17 18 18
9 8 9 9 8 8 8 9 9 8 8 12 14 16 17 17 18 18 17 16 15 15 15 14 13 13 13 13 14 14 15 14 12 11 11 13 13 13 14 14 14 13 14 14 14 15 15 15 15 15 16 17 18 16
8 8 8 8 8 8 8 7 7 7 10 14 15 16 17 17 17 16 15 14 14 14 14 14 13 13 13 13 14 13 11 12 13 12 12 13 12 13 13 14 14 14 14 13 14 14 14 14 14 15 16 16 15 16
8 8 8 7 7 8 8 8 7 10 12 14 15 16 18 18 17 16 15 14 14 13 13 12 12 12 13 12 12 10 10 11 12 12 12 12 12 13 13 13 14 14 14 14 14 13 13 13 14 14 14 15 14 13
8 7 7 7 7 7 8 9 9 12 14 15 16 17 18 17 16 15 15 14 13 13 13 12 12 11 10 9 9 9 10 10 11 11 11 11 12 12 12 12 12 13 13 13 13 13 13 12 12 13 13 14 14 13
8 7 7 7 7 8 9 11 12 13 15 17 17 18 18 17 16 15 14 14 14 13 13 10 9 9 8 8 8 8 8 8 9 10 10 11 12 11 12 11 11 12 13 13 13 12 12 12 12 12 12 13 14 13
7 8 8 8 8 8 9 12 14 14 15 16 17 18 18 16 14 13 14 14 14 12 11 9 9 8 8 8 8 8 9 9 9 9 9 10 10 10 10 10 11 11 11 12 12 12 11 11 11 11 11 12 13 13
7 7 7 8 7 8 8 10 13 15 15 16 16 17 18 14 13 14 13 14 13 11 10 9 10 9 9 8 8 8 8 8 8 9 9 9 9 9 9 9 10 10 10 11 11 11 11 11 11 12 12 13 14 14
7 7 7 8 9 10 9 11 13 15 16 17 16 15 17 16 17 14 14 14 13 11 11 11 10 10 10 9 9 10 10 10 9 9 9 9 9 8 8 9 9 9 9 10 10 11 10 11 11 10 10 11 11 11
7 7 9 11 10 9 13 15 16 16 16 16 15 17 17 17 16 14 11 11 13 12 11 11 11 10 11 10 11 11 11 11 10 10 10 10 9 8 9 8 9 9 9 10 10 10 9 10 10 10 10 11 11 11
7 8 9 7 12 13 15 16 16 16 15 16 16 16 16 14 14 14 12 10 12 13 13 12 12 11 12 12 11 11 11 11 11 11 11 10 10 10 10 10 9 9 9 9 9 9 10 9 10 11 11 10 11 11
6 9 8 13 15 16 17 17 16 16 17 16 17 18 18 16 15 13 11 12 13 13 13 13 13 13 13 14 13 13 13 13 13 12 13 12 12 12 11 11 12 10 10 11 11 11 11 11 11 11 12 13 13 12
8 12 13 13 14 16 17 17 17 17 17 17 18 18 17 15 14 13 14 14 14 14 15 15 15 14 13 14 14 14 14 13 13 14 14 14 14 14 14 14 13 13 12 12 13 13 13 13 13 13 14 14 14 14
10 13 14 16 16 17 17 13 11 15 18 18 18 17 16 16 14 15 15 15 15 15 16 16 15 14 15 16 14 14 14 14 14 14 14 14 14 14 13 13 14 13 13 14 14 14 14 14 14 14 14 13 13 13
11 13 14 15 16 16 17 17 17 18 17 16 12 16 17 17 16 16 15 15 15 16 16 15 13 14 15 15 14 14 14 14 14 15 16 15 15 14 14 14 13 13 13 13 13 14 14 14 14 13 13 13 12 12
12 13 14 15 15 15 16 17 18 18 16 16 15 14 16 16 16 15 15 15 15 16 16 16 15 15 15 15 15 14 15 15 15 16 16 15 15 15 14 14 14 14 13 13 13 13 12 13 12 13 12 12 12 12
15 15 15 16 17 17 18 18 17 16 17 15 17 17 16 16 15 15 15 15 15 15 16 15 15 15 16 15 16 16 16 16 16 16 16 16 15 14 14 14 14 13 13 13 12 12 11 11 11 11 11 10 10 10
16 17 16 17 17 17 17 17 16 16 14 14 16 16 15 15 15 15 15 15 15 16 16 15 16 16 16 16 16 16 16 16 16 16 15 15 15 15 14 14 14 13 13 13 12 12 11 11 11 10 10 10 10 9
17 17 17 18 17 14 13 14 13 15 16 16 12 14 14 15 15 16 16 15 16 16 16 16 16 16 16 16 16 16 16 16 15 15 15 15 15 15 15 14 14 14 13 13 12 12 11 11 11 10 10 10 10 10

GFSWCAN_850_temp_282.txt.gz
Temp
8 8 8 8 8 9 9 9 10 11 11 11 12 12 12 12 13 13 12 11 11 10 12 14 14 14 15 15 13 16 15 16 15 16 15 16 16 16 16 17 17 16 15 15 14 16 17 17 19 21 18 19 18 17
8 8 7 7 8 8 8 9 9 10 10 11 11 11 11 11 12 12 12 11 10 9 12 14 14 14 14 15 13 14 16 15 17 14 14 14 16 14 14 16 15 16 15 14 14 15 17 17 17 18 17 17 18 17
7 7 7 7 7 7 8 8 9 9 10 10 11 11 11 11 10 10 11 10 11 9 11 12 16 15 16 16 15 12 15 16 17 18 15 13 15 12 13 13 16 15 14 14 15 16 16 18 19 18 17 16 16 17
8 8 8 8 7 7 7 8 8 9 9 10 10 10 10 10 10 10 10 9 7 7 6 13 15 17 17 17 16 17 17 17 18 17 16 12 14 15 13 15 14 14 14 14 13 14 17 19 18 16 16 16 16 16
9 9 8 8 8 8 7 8 8 8 9 10 10 10 10 10 10 10 9 9 7 7 6 8 13 17 16 17 18 18 17 17 16 15 12 12 14 15 13 13 14 14 13 13 14 17 17 17 16 16 16 16 14 15
9 9 9 9 9 8 8 8 8 9 9 10 10 9 10 10 10 9 8 7 7 6 6 5 11 16 16 16 17 18 17 16 16 18 14 18 19 18 13 13 16 18 18 19 18 21 17 17 17 18 16 16 15 15
9 9 9 9 9 9 9 9 9 9 9 10 10 10 10 10 10 9 9 8 7 6 7 8 8 14 15 16 15 16 16 17 17 18 15 17 18 18 12 14 17 19 19 19 20 18 18 17 18 19 16 16 16 16
9 9 9 9 9 9 9 9 9 9 10 10 10 10 10 9 9 9 9 8 7 7 7 8 7 12 15 15 14 14 13 14 17 17 17 14 16 15 12 15 20 20 21 20 20 19 19 18 17 17 18 17 17 16
8 9 9 9 9 9 9 9 9 9 10 11 10 10 10 9 8 9 8 7 7 7 7 9 8 9 14 14 13 12 11 9 13 12 14 14 13 13 14 16 19 20 19 20 21 19 18 18 19 19 18 16 17 19
9 9 9 9 9 9 9 9 9 10 10 10 11 10 10 9 9 8 8 7 7 7 7 7 9 9 13 13 11 10 11 10 9 10 12 12 13 14 16 16 18 18 17 19 17 17 18 17 19 20 20 17 17 19
9 9 9 9 9 9 9 9 9 10 10 10 9 9 9 9 8 8 8 7 8 7 8 8 10 9 13 10 9 11 9 10 10 12 11 12 13 12 15 13 17 16 17 17 17 17 18 19 19 19 19 19 18 20
8 9 9 9 9 9 9 9 9 9 9 9 9 9 9 9 9 9 9 10 9 10 12 11 13 13 13 13 11 10 11 10 11 12 11 12 11 13 14 14 15 17 17 18 18 19 18 17 17 18 17 18 19 19
9 9 9 9 9 9 9 9 9 9 9 9 9 9 9 11 7 11 13 11 12 13 15 14 11 13 13 13 11 10 11 11 13 12 13 12 13 13 13 14 14 15 15 16 16 17 17 17 16 16 17 18 17 19
9 9 9 9 9 9 9 9 9 9 9 8 9 6 9 10 10 12 12 12 16 15 15 14 13 12 12 10 10 12 11 11 14 13 12 11 11 13 13 14 14 14 14 14 15 15 15 15 15 16 16 17 17 17
8 9 9 9 8 8 8 8 9 9 9 8 11 7 10 14 15 16 17 16 15 15 14 13 12 12 9 10 9 10 12 13 11 12 10 11 11 12 13 14 14 14 14 14 14 14 14 14 15 15 16 16 17 17
8 8 9 9 9 8 8 8 9 8 8 9 10 11 14 14 14 16 16 15 15 14 14 13 11 10 10 10 12 13 14 12 11 10 11 11 12 12 13 13 13 13 14 14 14 14 14 14 14 14 16 16 18 17
8 8 8 8 8 7 8 8 6 6 7 10 12 14 14 14 14 15 15 15 14 14 10 10 11 12 9 10 12 9 10 9 9 10 11 12 12 12 12 12 13 13 13 13 13 14 13 13 14 15 15 16 17 15
8 8 8 8 7 7 8 7 7 7 8 10 11 14 15 16 16 15 16 14 14 13 12 11 11 10 10 11 9 8 8 8 9 9 10 11 11 11 11 11 12 12 12 13 13 13 13 13 14 14 14 15 15 14
7 7 7 7 7 7 8 8 8 9 12 13 13 14 15 15 16 16 15 14 14 13 12 12 11 9 8 8 9 8 8 8 8 8 8 9 10 11 11 11 11 12 12 12 12 13 12 12 13 13 13 13 15 15
7 7 7 7 7 7 8 9 10 11 12 15 15 16 16 15 14 14 14 14 13 13 10 8 7 9 8 8 8 8 8 8 8 8 8 9 9 10 10 10 10 10 11 12 12 12 12 12 12 12 12 13 13 13
7 7 7 7 7 7 8 9 12 12 14 14 15 16 15 14 14 13 13 13 13 11 8 10 9 9 9 8 8 8 8 8 9 9 8 8 8 8 9 9 10 10 10 11 11 11 12 11 12 12 12 12 12 13
7 7 7 7 7 8 7 9 10 12 13 15 15 16 15 13 12 12 13 13 12 11 11 10 9 10 10 10 9 9 9 9 8 8 8 9 8 8 8 8 9 10 10 11 11 11 11 10 10 11 11 11 12 12
6 6 7 7 8 9 9 10 10 13 11 14 15 15 15 14 14 13 12 12 11 11 11 11 10 10 10 11 10 11 10 9 9 10 10 10 10 9 9 8 8 9 8 9 10 11 11 11 11 11 11 11 11 12
6 7 7 8 9 8 11 11 12 14 15 13 12 15 15 14 14 12 10 10 11 11 11 11 11 11 11 11 11 12 11 11 10 10 10 11 10 10 9 9 8 9 9 9 10 10 10 10 10 10 11 11 11 11
7 8 8 7 10 10 12 12 13 14 13 13 14 14 14 14 11 11 11 11 11 11 12 12 11 11 11 12 12 12 12 12 11 11 11 11 11 11 10 9 8 9 9 9 9 9 9 9 10 10 10 10 11 12
6 8 7 11 12 12 12 15 13 14 14 14 15 16 16 11 12 11 10 13 13 12 12 12 13 12 12 12 12 13 14 13 13 13 13 13 12 12 12 11 10 10 10 9 10 10 10 10 10 10 10 10 10 10
6 9 10 11 12 13 14 14 13 13 15 16 14 14 14 15 14 12 14 14 14 14 14 14 13 13 14 13 13 13 14 14 13 13 13 13 13 13 12 13 13 12 12 11 11 12 11 11 10 10 10 10 10 11
7 9 11 13 13 13 13 12 11 12 13 16 16 15 16 15 12 15 16 16 16 15 14 14 14 14 13 14 13 14 13 14 14 14 14 13 13 13 13 13 13 13 12 12 12 12 13 12 13 13 12 11 11 11
7 9 11 11 12 14 15 13 12 15 16 17 12 12 14 15 16 16 16 16 15 14 14 14 14 14 14 14 13 14 14 14 15 15 14 14 13 13 13 13 13 13 13 13 13 13 13 13 13 12 12 12 12 12
10 10 12 13 13 13 15 16 16 16 16 15 15 14 14 15 15 15 16 15 15 14 14 15 15 15 14 14 14 14 15 15 15 15 14 14 14 14 14 13 13 13 13 13 12 12 12 12 12 12 12 11 11 11
12 12 12 13 13 15 15 16 16 16 15 15 13 14 14 15 14 14 14 15 15 15 14 15 15 15 14 14 15 15 15 15 15 15 15 14 14 14 14 13 13 13 13 12 12 12 11 11 11 11 10 10 10 10
14 14 14 13 15 15 16 15 14 14 14 15 13 14 15 15 14 15 15 14 15 15 15 15 15 15 15 15 15 15 15 16 15 15 15 15 14 14 14 13 13 13 12 12 12 11 11 10 10 10 10 9 9 9
15 15 16 16 14 14 14 14 14 14 14 13 13 14 14 15 14 15 15 15 16 15 15 15 15 15 16 16 15 15 15 15 15 15 15 14 14 14 14 13 13 13 12 12 11 11 11 11 10 10 10 9 9 9

GFSWCAN_850_temp_288.txt.gz
Temp
7 7 7 8 7 7 7 7 8 8 9 10 10 11 11 12 12 12 11 11 10 10 12 12 12 12 12 12 10 13 12 12 11 13 12 12 13 13 15 15 14 14 13 13 11 15 16 18 18 18 18 18 19 19
8 8 8 8 8 8 7 7 7 8 8 9 10 10 11 11 11 11 11 10 9 8 12 13 12 12 12 12 12 12 12 11 13 11 10 10 13 11 12 14 13 14 14 14 13 14 16 18 20 22 20 19 18 17
9 8 8 9 9 8 8 8 8 8 8 9 9 10 10 10 10 10 11 10 9 8 10 11 14 14 14 13 12 11 11 13 14 14 12 10 12 10 12 12 14 14 13 13 15 16 15 18 20 20 19 18 18 17
9 10 9 9 9 9 9 9 8 8 8 9 9 9 10 10 10 10 10 9 8 8 5 13 14 15 14 14 13 13 13 13 13 14 13 9 11 13 11 12 12 13 12 13 12 13 17 20 20 19 19 18 17 16
9 9 10 9 9 9 9 9 9 9 9 9 9 9 10 10 10 9 9 8 8 7 5 10 13 16 15 15 15 14 13 11 11 12 9 9 10 11 9 10 10 12 12 13 13 17 17 18 18 18 18 17 17 15
9 9 9 9 9 9 9 9 9 9 9 9 9 10 10 10 9 9 8 8 7 6 6 5 12 15 15 16 15 14 14 10 10 11 11 14 16 15 9 9 14 18 18 19 17 19 18 18 17 17 18 18 16 16
8 8 9 9 9 8 9 9 9 9 9 9 9 10 10 10 9 9 9 9 7 6 6 6 6 14 15 15 15 14 13 12 11 11 10 13 14 13 9 13 14 18 19 19 19 18 16 19 18 18 17 18 17 16
8 8 9 9 9 9 9 9 9 9 9 9 10 10 10 10 9 9 8 8 7 6 6 5 6 11 13 14 13 13 12 11 11 11 11 9 11 11 10 12 17 18 18 18 19 17 17 18 17 17 17 17 16 16
8 8 9 9 9 9 9 9 9 9 9 10 10 10 9 9 8 8 7 7 6 6 7 6 6 9 13 13 12 11 10 8 10 8 8 10 10 10 12 15 18 18 16 17 18 16 17 17 17 17 17 17 16 15
8 9 9 8 9 8 9 9 9 9 9 10 9 9 8 8 8 7 6 6 6 6 6 6 6 6 11 11 10 9 9 7 8 9 10 9 8 10 10 12 13 14 15 16 15 15 16 16 16 18 19 17 16 16
8 8 8 8 8 8 8 8 9 9 9 9 9 8 8 8 7 7 7 7 6 6 6 6 7 7 11 8 8 10 8 8 10 10 11 10 10 10 10 11 11 13 15 17 14 13 15 15 17 18 18 18 17 16
8 8 8 7 8 8 8 8 9 9 8 9 9 8 8 7 7 7 8 7 7 8 9 8 10 9 11 10 9 10 10 8 10 10 10 10 9 9 10 10 11 11 14 15 14 14 15 15 16 17 17 18 18 17
8 7 7 7 8 8 8 8 8 8 8 8 8 8 7 7 4 7 10 8 8 10 12 11 9 11 10 10 10 9 9 9 10 9 10 9 9 9 9 10 11 12 12 13 13 13 15 15 15 16 16 16 17 17
7 8 8 8 8 8 8 8 8 8 8 8 7 4 8 8 7 8 8 10 14 14 14 12 11 10 10 10 9 9 9 8 11 12 11 9 9 9 10 10 10 11 12 12 13 13 13 14 14 14 14 14 15 16
7 7 6 8 8 8 8 8 7 8 8 7 7 6 7 9 11 12 13 13 14 14 13 11 10 9 8 9 8 8 9 11 11 10 10 10 9 9 9 10 10 11 11 12 12 13 13 13 13 13 13 14 15 15
7 7 7 8 8 8 8 7 7 7 8 7 6 7 10 9 10 12 13 13 13 13 13 11 8 9 9 8 9 10 10 11 9 9 9 8 8 8 9 9 10 10 11 11 12 12 13 13 13 13 13 14 15 15
7 7 7 8 8 8 7 7 7 7 6 7 7 9 9 10 10 12 13 13 13 13 10 8 10 11 7 8 9 9 9 8 8 7 8 8 8 8 8 8 10 10 11 11 11 12 12 12 13 13 13 14 15 14
6 6 6 7 7 7 7 7 7 6 7 7 7 10 10 11 12 13 13 13 13 13 11 10 10 9 9 9 8 7 8 7 7 8 8 8 8 8 8 8 9 9 10 10 11 11 12 12 12 12 13 13 12 13
5 6 6 6 6 7 7 6 6 7 8 8 9 10 11 12 13 14 13 13 12 12 12 10 9 7 7 8 8 7 7 7 7 8 8 8 8 8 8 8 8 9 10 10 10 11 11 11 12 12 12 12 12 12
7 7 6 6 6 7 6 7 7 7 8 10 10 11 12 13 13 13 12 12 12 12 10 8 6 9 9 9 8 9 9 9 9 8 9 9 9 9 8 7 7 8 9 10 9 10 10 11 11 11 12 12 11 12
6 7 6 6 6 6 7 7 7 9 10 10 12 12 13 12 11 12 12 11 12 11 9 10 10 10 10 10 10 9 9 9 8 8 8 8 9 8 8 7 7 8 8 8 8 9 10 11 11 12 12 12 11 12
6 6 6 6 6 6 6 7 8 9 9 11 11 13 13 11 11 12 11 11 11 12 12 11 11 11 12 11 10 9 9 9 9 9 9 9 8 8 7 7 8 8 8 8 9 9 10 10 11 11 12 12 12 12
6 6 6 7 6 6 7 8 8 9 8 10 11 11 10 11 11 11 11 11 12 13 12 11 11 11 11 10 10 11 10 10 10 10 10 9 9 8 7 8 8 9 8 8 9 9 10 10 10 11 12 12 12 12
6 6 6 6 6 7 8 8 9 9 10 9 9 13 12 10 10 10 9 10 12 13 12 12 12 11 11 11 11 12 11 11 11 12 12 12 11 9 8 7 8 9 9 9 9 9 10 10 10 10 11 11 12 12
6 6 6 6 7 8 8 9 9 8 10 11 11 12 11 11 9 8 9 10 12 13 13 12 12 12 12 12 12 13 12 11 12 13 12 12 12 11 9 8 7 9 9 9 9 9 9 9 10 10 10 11 11 11
7 7 6 8 9 8 10 11 10 10 11 13 12 12 12 10 11 11 9 13 12 12 13 13 13 12 12 12 13 13 13 13 13 12 13 13 13 13 11 9 8 8 8 9 9 9 9 9 9 10 10 10 10 10
6 8 7 8 9 9 10 11 11 11 12 13 12 11 12 13 12 11 14 14 14 14 13 13 14 14 14 13 13 13 13 13 13 12 12 13 13 12 12 11 9 10 10 10 10 10 9 9 9 9 9 9 9 9
6 7 8 9 9 10 10 10 11 11 11 13 12 13 14 13 12 15 15 15 15 15 14 14 14 14 13 13 13 14 13 13 13 13 12 13 13 12 13 12 12 12 12 11 10 10 11 10 10 10 9 9 10 10
6 7 7 8 9 10 10 11 11 13 14 13 11 11 12 15 15 15 15 16 15 15 15 14 14 14 13 13 13 13 14 14 14 13 14 13 13 12 12 12 12 12 12 12 12 12 11 11 11 10 10 10 9 10
7 8 8 8 9 9 12 13 13 14 15 14 14 14 15 15 15 15 15 15 15 15 15 15 14 14 14 14 13 13 14 14 14 14 14 14 13 12 12 12 12 12 12 12 12 12 12 12 11 11 10 10 10 10
8 8 8 9 9 12 12 13 13 13 13 14 14 14 14 14 14 15 15 15 15 15 15 15 15 14 14 14 14 14 14 14 14 14 14 14 13 13 12 12 12 12 11 11 11 11 11 11 11 10 10 10 10 10
9 9 9 9 10 13 13 13 13 13 13 13 13 13 13 14 14 14 15 14 14 14 14 14 15 15 14 15 15 15 15 15 14 14 14 14 14 13 13 12 12 12 12 12 11 11 10 10 10 10 10 10 10 9
10 10 10 11 12 12 13 13 13 12 12 12 13 13 13 14 13 15 15 15 14 15 14 15 15 15 15 15 15 15 15 15 15 15 15 14 14 13 13 13 12 12 12 11 11 11 10 10 10 9 9 8 8 8

GFSWCAN_850_temp_291.txt.gz
Temp
8 7 7 8 8 8 8 8 8 8 8 9 9 10 11 11 11 11 11 11 11 10 13 13 13 12 12 12 15 13 15 14 15 17 18 19 18 19 18 20 20 20 20 20 19 19 20 21 20 22 23 21 21 20
9 9 8 8 9 9 9 8 8 8 8 9 9 9 10 11 11 11 10 10 10 9 11 13 12 12 13 13 12 12 13 12 14 16 16 16 17 16 17 19 16 19 21 22 21 22 20 19 21 20 20 19 19 18
9 9 9 9 9 9 9 9 9 9 9 9 9 9 10 10 10 10 10 10 9 8 10 11 12 13 13 13 12 12 11 13 13 13 15 16 16 16 18 18 18 17 16 19 18 22 19 19 19 20 19 18 18 17
8 9 9 10 9 9 9 9 9 9 9 9 9 9 10 10 10 10 10 9 9 8 7 13 13 13 14 14 14 14 13 13 12 12 14 16 16 15 18 18 17 18 15 18 18 19 18 19 18 19 19 19 17 16
8 8 9 9 10 9 8 9 9 9 9 9 9 9 10 10 9 10 9 8 8 8 8 10 14 15 15 14 14 13 12 10 10 12 14 14 15 15 16 15 18 17 18 18 20 20 18 19 19 19 18 18 18 16
8 8 8 9 9 9 9 8 9 9 9 10 9 9 10 10 9 9 8 8 7 7 6 10 12 14 15 14 14 14 12 9 9 11 13 13 14 15 17 17 18 18 17 18 18 19 17 17 18 18 17 19 18 16
8 8 8 8 8 9 8 8 8 9 9 10 10 10 10 10 10 9 9 8 7 6 6 9 12 14 15 15 15 13 12 10 10 11 11 13 15 13 16 16 17 17 18 19 19 17 16 17 17 18 17 18 16 17
8 8 8 8 8 8 9 8 8 9 9 10 10 10 10 10 9 8 8 7 6 6 6 8 12 13 14 14 14 12 11 9 10 12 11 13 13 13 15 15 14 16 17 17 17 17 17 18 17 16 16 16 16 17
8 8 8 8 8 9 9 9 8 9 9 10 10 9 9 8 8 8 7 6 6 6 7 8 11 15 13 12 11 10 10 12 10 12 12 11 13 13 12 10 11 12 13 15 15 15 17 15 16 16 15 16 16 17
8 8 8 8 8 8 9 8 9 9 9 9 10 8 8 8 7 7 6 6 6 6 6 7 7 12 12 11 13 11 9 12 12 13 11 12 11 10 10 9 9 10 11 13 16 17 15 15 15 15 15 17 17 18
8 8 8 8 8 8 8 8 8 9 9 9 9 8 8 8 7 6 7 7 7 7 6 7 8 12 10 12 12 10 12 10 12 13 12 10 9 9 9 9 9 10 12 14 15 15 13 13 14 15 15 15 16 17
8 8 8 8 7 7 7 8 8 8 8 9 9 8 8 7 6 7 9 8 8 10 9 10 11 8 10 10 10 11 11 10 12 12 11 10 10 9 8 9 9 10 12 12 13 14 12 13 14 15 14 14 15 16
7 8 8 7 7 7 7 8 7 8 8 8 8 7 6 6 6 8 10 10 10 10 10 10 12 10 9 9 11 11 12 13 12 11 10 10 10 10 9 9 11 11 11 12 11 12 13 13 14 14 14 14 14 15
7 8 8 8 7 7 8 7 7 8 8 8 7 5 9 9 9 12 13 14 13 12 12 11 11 11 10 11 12 12 13 12 13 14 12 10 10 9 9 9 10 11 12 11 11 12 12 12 13 13 14 14 14 15
7 8 8 7 6 7 7 7 7 7 8 7 6 8 9 10 10 11 11 11 13 12 12 11 10 10 11 11 10 11 12 13 12 12 11 10 9 8 8 8 9 10 11 11 11 10 12 12 12 13 13 14 14 15
7 7 7 7 7 7 8 7 7 7 8 7 6 8 9 9 12 11 11 12 13 12 12 11 11 12 12 11 11 12 12 13 10 10 9 8 8 8 8 8 8 8 9 9 10 11 11 11 12 12 13 13 14 14
6 6 6 7 7 7 7 6 6 7 6 7 7 7 8 9 10 11 12 13 12 12 14 11 12 12 10 11 12 11 11 10 9 8 8 8 8 8 8 8 8 7 8 8 8 9 11 11 11 12 12 13 13 12
4 5 5 6 6 6 6 6 7 6 7 7 8 9 9 9 10 11 12 13 12 12 11 13 11 11 12 12 12 11 9 8 8 8 8 9 8 8 8 8 8 8 8 8 8 9 11 11 11 12 12 12 12 12
4 4 5 5 5 5 6 6 6 6 8 8 8 9 9 10 12 12 12 12 12 12 12 10 11 12 12 10 10 9 9 9 9 8 9 9 9 8 7 7 7 7 8 8 9 9 10 10 11 12 11 12 12 12
5 6 6 6 5 6 6 6 6 6 8 9 9 9 10 11 12 12 11 11 11 11 11 11 12 11 11 10 10 10 10 9 8 7 8 8 8 9 8 7 7 7 7 7 8 8 9 10 11 11 11 11 12 12
5 6 6 6 5 5 6 6 7 7 8 8 10 10 11 11 11 10 10 11 11 12 12 11 11 11 11 11 11 11 10 9 9 8 8 7 8 8 8 7 7 7 7 7 7 8 9 10 11 11 11 11 12 12
5 6 6 6 6 6 6 7 7 8 8 9 10 11 12 11 11 10 11 11 12 12 12 12 12 12 12 11 11 11 10 10 9 10 10 8 8 9 7 7 8 8 8 8 8 9 10 10 10 11 11 11 12 12
5 5 6 6 6 6 7 7 7 8 9 10 10 11 12 11 10 10 11 11 12 13 13 13 12 12 12 11 11 11 11 10 10 11 11 10 10 8 7 7 9 8 8 8 9 9 10 10 10 11 11 11 12 12
5 6 6 6 6 6 7 7 7 8 9 10 11 13 12 10 9 10 13 11 13 13 13 13 13 12 12 11 12 12 12 11 11 12 11 10 10 8 8 8 9 9 9 9 9 10 10 10 10 11 11 11 11 11
6 6 6 6 6 7 8 9 10 10 10 12 12 13 12 9 12 12 13 12 12 12 13 13 13 13 12 13 13 12 12 11 12 12 12 11 10 9 9 8 9 9 9 10 10 10 10 10 10 10 11 10 11 11
5 7 6 8 8 8 9 10 11 11 12 13 13 12 11 12 13 14 13 13 14 13 13 13 13 13 13 13 13 12 12 12 12 12 12 12 11 9 9 9 9 9 9 9 9 9 9 10 10 10 10 9 9 10
6 7 7 7 7 8 9 8 9 11 13 14 14 13 13 13 14 15 15 16 15 14 13 13 14 14 14 13 13 12 13 13 13 12 12 12 12 12 11 10 10 10 10 9 9 8 8 9 9 9 9 9 9 9
6 6 7 8 7 8 9 10 10 12 13 12 12 13 14 14 15 15 16 15 15 15 14 13 13 14 14 13 13 13 13 13 13 13 13 12 12 12 12 12 12 12 11 10 10 8 9 9 9 9 9 9 9 9
6 6 7 7 8 9 10 11 13 13 13 13 12 14 14 15 15 15 15 16 15 15 15 14 14 14 14 13 13 13 13 14 14 13 13 13 12 12 12 12 12 12 12 11 11 10 10 9 9 10 9 10 10 10
7 7 8 9 10 10 12 12 12 13 13 13 13 14 14 15 15 15 14 15 15 15 15 15 15 14 14 13 13 13 13 14 14 14 14 13 13 12 12 12 11 11 11 12 11 10 10 10 9 9 10 10 10 10
7 7 8 9 10 11 11 12 12 12 12 13 13 13 13 14 14 15 15 15 14 14 15 15 14 14 14 14 14 14 14 14 14 14 14 13 13 13 12 12 12 11 11 11 11 11 10 10 10 10 10 10 10 10
7 8 8 9 10 12 11 11 11 12 12 12 12 12 12 13 13 15 15 15 15 14 14 14 14 15 14 14 14 14 15 15 14 14 14 14 13 13 12 12 12 11 11 11 10 10 10 10 10 10 9 9 9 9
8 8 9 10 11 12 11 12 11 12 11 11 12 12 12 13 14 15 15 15 15 15 15 15 14 14 15 15 15 15 15 15 14 14 14 14 14 13 13 12 12 12 11 11 11 10 10 9 9 9 9 9 8 8

GFSWCAN_850_temp_297.txt.gz
Temp
9 9 9 9 9 9 10 10 10 10 10 10 11 11 12 13 13 13 12 13 12 17 19 19 19 20 21 21 23 21 22 23 24 23 25 26 26 26 26 26 25 25 25 26 26 25 25 29 29 27 28 27 27 26
9 9 9 9 10 10 10 10 10 10 10 10 10 11 11 12 12 12 13 11 11 12 17 15 16 16 17 19 20 21 22 21 23 23 25 25 25 26 25 24 27 25 26 25 26 26 27 25 26 26 26 26 26 25
9 9 9 9 9 9 10 10 10 10 10 10 10 10 11 11 12 12 10 10 11 13 17 17 18 17 16 16 18 20 21 21 20 20 21 23 22 24 23 24 25 26 26 25 25 25 26 26 26 25 25 24 24 23
8 8 8 8 8 9 9 10 10 10 10 10 10 10 10 11 11 11 9 10 11 13 17 20 17 17 16 17 16 17 18 18 19 19 20 22 22 23 23 24 24 24 24 24 23 24 24 24 24 24 23 22 22 22
8 8 8 8 8 8 9 9 10 10 10 10 10 10 10 10 11 11 8 9 10 11 17 19 19 18 17 17 16 16 17 18 19 20 21 21 22 22 23 23 23 23 23 23 23 23 22 22 21 21 21 21 21 21
8 8 8 8 8 8 8 9 9 9 9 9 10 10 10 10 11 9 12 10 9 10 13 20 19 17 17 17 16 17 17 17 18 19 20 20 21 21 21 21 22 22 20 20 20 20 21 21 21 21 21 21 21 21
8 8 8 8 8 8 8 8 9 9 9 9 10 10 10 11 10 11 11 10 10 9 13 19 21 18 18 17 17 18 18 18 18 18 19 20 20 20 21 20 20 16 16 16 16 17 17 18 19 20 21 21 21 21
8 8 8 8 8 8 8 8 9 9 9 8 9 10 10 10 10 10 9 10 10 10 13 18 22 20 18 19 20 19 19 19 18 18 19 20 19 19 19 17 15 14 13 13 14 15 15 17 18 19 20 20 20 20
8 8 8 8 8 8 8 8 9 9 8 8 9 9 9 9 10 9 9 9 7 9 15 18 21 21 19 20 20 19 18 20 20 19 19 18 19 18 15 14 13 12 10 10 11 13 15 15 14 17 20 20 20 21
7 8 8 8 8 8 8 8 8 8 9 9 9 9 10 9 9 9 7 8 9 9 11 16 20 21 20 21 20 20 19 19 17 19 17 17 19 15 14 11 11 11 12 10 11 15 15 14 13 15 20 21 21 21
7 8 8 8 8 8 8 8 8 8 8 9 11 12 10 9 9 11 11 11 12 14 15 17 19 20 18 20 20 19 19 20 17 18 17 16 18 16 14 12 12 11 11 12 12 13 12 12 12 13 15 15 19 19
7 7 8 8 8 8 8 7 8 8 8 9 9 9 9 11 13 13 12 13 14 18 17 18 19 18 19 17 18 16 17 17 17 18 16 17 16 15 14 14 14 13 11 11 11 12 13 13 12 13 13 15 16 16
6 7 7 8 8 7 7 7 7 8 8 8 9 11 12 13 11 13 15 16 17 17 18 18 18 18 17 16 18 17 17 17 19 18 17 17 15 14 14 13 13 13 13 13 12 11 13 14 14 13 13 15 16 16
6 7 7 7 8 7 7 7 7 7 8 9 12 9 13 14 16 18 19 19 18 19 19 19 19 19 19 18 18 16 19 18 17 18 16 15 14 13 12 12 11 11 11 12 13 12 12 14 14 14 15 15 15 16
6 7 6 6 7 7 7 7 7 7 7 10 12 12 15 17 18 18 18 18 18 18 19 19 19 19 19 17 19 19 17 18 18 15 16 15 13 12 12 11 11 11 11 11 12 12 12 12 14 15 15 15 15 15
5 5 5 5 6 6 6 7 7 7 7 9 11 14 16 17 18 18 18 18 18 18 18 18 18 18 18 18 17 17 18 18 16 16 15 14 13 11 10 10 10 10 10 11 11 11 11 12 13 14 14 15 15 15
4 4 4 5 6 7 7 7 7 7 7 7 12 14 15 16 16 17 16 16 16 17 18 17 17 17 19 18 17 17 16 18 16 15 15 12 11 11 10 10 10 10 10 10 9 9 9 10 11 12 14 14 15 14
4 4 4 5 6 6 6 6 6 6 7 10 14 15 16 15 16 16 17 16 16 15 17 17 17 17 17 18 18 17 17 16 15 14 13 13 12 11 11 10 10 9 9 8 8 8 8 8 10 12 14 15 14 14
4 4 4 4 5 5 5 6 6 7 9 13 14 13 14 14 13 14 15 15 16 16 16 16 17 18 18 17 17 18 17 16 15 14 14 13 13 13 12 11 10 9 8 7 8 8 8 8 10 12 13 15 15 15
5 5 5 5 5 5 6 6 6 7 11 12 12 13 13 12 13 15 16 15 15 15 15 16 19 18 17 18 17 16 15 14 14 14 14 14 14 13 11 10 8 8 8 8 8 8 8 9 10 11 13 14 13 14
5 5 5 5 5 5 6 6 6 9 11 11 12 11 12 14 14 15 14 14 14 14 16 17 17 17 16 15 15 15 14 14 14 13 13 13 13 11 10 9 8 8 8 8 8 9 9 9 10 11 12 12 12 12
5 5 5 5 5 5 5 6 7 8 10 13 13 13 13 13 14 13 13 13 15 17 17 17 17 17 15 14 14 13 13 12 13 13 13 14 11 9 9 9 9 9 9 9 9 9 10 10 10 11 11 11 12 12
4 5 5 5 5 6 7 8 8 10 12 11 13 14 16 16 16 15 14 15 17 17 17 17 16 15 15 13 13 13 13 12 14 13 14 13 10 9 9 9 9 9 9 10 10 10 11 11 11 11 11 12 12 12
5 5 5 6 6 8 8 7 7 10 11 12 13 14 15 15 16 16 17 18 18 18 17 15 14 14 14 13 14 14 14 14 15 14 14 13 10 10 8 8 9 9 9 10 10 11 11 11 11 11 11 11 11 12
5 5 6 6 7 9 11 11 9 9 10 11 12 15 16 15 15 17 18 19 18 18 17 15 15 15 15 15 15 15 14 15 15 14 14 13 12 12 11 10 10 10 10 9 10 10 10 11 11 11 11 11 11 11
5 7 6 10 9 10 12 10 11 10 10 10 13 15 17 16 17 18 19 18 18 18 17 16 16 16 16 16 16 16 16 15 15 15 14 13 13 13 12 12 11 9 9 9 10 10 10 10 10 10 10 10 10 10
6 8 8 9 8 7 8 8 8 9 11 11 13 16 16 17 17 18 18 18 18 17 17 16 16 16 17 16 16 15 15 15 14 14 14 13 13 12 12 11 10 9 9 8 9 10 9 9 10 9 9 9 9 9
6 7 10 8 7 8 9 9 9 10 12 13 15 16 17 18 17 17 17 17 17 16 16 16 16 16 17 16 16 15 16 16 16 16 15 15 13 13 13 11 10 10 9 9 9 10 9 9 9 9 9 9 8 9
6 8 9 10 8 8 8 10 11 11 12 12 14 14 17 17 17 17 16 16 16 16 16 16 16 16 16 16 16 16 16 16 16 16 16 16 15 14 13 13 11 11 10 10 10 10 10 10 8 8 8 8 8 8
9 10 9 9 10 10 11 10 12 12 13 13 14 15 16 17 17 17 16 16 16 17 17 16 16 16 16 16 16 16 16 17 17 17 16 15 15 14 14 13 13 13 12 12 12 11 11 10 10 9 9 9 9 9
9 8 8 9 11 12 13 13 13 14 14 15 15 15 16 16 16 17 17 16 16 16 17 17 17 17 17 17 16 16 16 17 16 16 16 15 14 14 14 13 13 13 13 13 13 13 13 12 12 12 12 11 11 10
10 10 11 11 11 12 13 14 14 15 15 15 15 16 16 16 16 17 17 16 16 17 17 17 18 17 17 17 17 16 16 17 16 15 15 15 14 14 14 14 13 13 13 13 13 13 13 12 12 11 11 11 11 10
8 8 8 10 12 14 15 14 14 15 16 16 16 17 17 15 17 17 16 16 16 17 17 17 17 17 17 17 17 17 17 16 16 15 15 14 14 14 14 14 14 13 13 13 13 12 12 12 12 12 11 11 11 10